Content
SEND FEEDBACK

Daily
Averages
Monthly
Summary
United States of America

WILMINGTON, NORTH CAROLINA


Home > North America > United States > North Carolina
Elevation: 21 meters     Latitude: 34 16N     Longitude: 077 54W

WEATHER
 
SELECT A DAY
Number of Records: 208,677;   Date Range: 1/1/95 - 7/22/14
 
SHARE

PRINT THIS DATA

[ ← Previous Day ]
WEATHER ALMANAC - 14 FEBRUARY, 2013
[ Next Day → ]
[ °F ]   °C
Weather ElementAverageHighLow
Temperature8.3 °C11.7 °C (3:53 pm)5 °C (6:53 am)
Dewpoint3.1 °C7.2 °C (1:53 am)1.7 °C (4:53 am)
Humidity71.4 %89 % (9:53 pm)52 % (3:53 pm)
Barometer1016.3 hPa1019 hPa (8:53 pm)1010.8 hPa (1:53 am)
Wind Speed5.8 km/h14.8 km/h (1:53 am)
Weather ElementAverage
Visibility16.1 km
Wind DirectionSSE (145.2 °)

Weather ElementTotal
Precipitation---
Heating Degree Days10 (Base 18.3)
Averaged from 23 records on 14 February, 2013
WEATHER CONDITIONS BREAKOUT
WIND DIRECTION BREAKOUT
WEATHER BY HOUR - 14 FEBRUARY, 2013
[ °F ]   °C
Local TimeTemperatureDewpointHumidityBarometerVisibilityWind DirectionWind SpeedGust SpeedPrecipitationEventsConditions
1:53 AM10 °C7.2 °C83 %1010.8 hPa16.1 kmWNW (300°)14.8 km/hClear
2:53 AM8.9 °C6.1 °C83 %1011.9 hPa16.1 kmNW (310°)13 km/hPartly Cloudy
3:53 AM8.3 °C2.8 °C68 %1012.9 hPa16.1 kmNNW (340°)14.8 km/hClear
4:53 AM6.7 °C1.7 °C71 %1014.6 hPa16.1 kmNorth (350°)5.6 km/hClear
5:53 AM5.6 °C2.2 °C79 %1014.6 hPa16.1 kmNNW (340°)5.6 km/hClear
6:53 AM5 °C2.2 °C82 %1015.2 hPa16.1 kmCalmClear
7:53 AM6.1 °C2.8 °C80 %1016.6 hPa16.1 kmNNW (330°)7.4 km/hClear
8:53 AM8.3 °C2.8 °C68 %1017.3 hPa16.1 kmNorth (360°)11.1 km/hClear
9:53 AM8.9 °C2.2 °C63 %1017.6 hPa16.1 kmNNE (20°)13 km/hClear
10:53 AM10 °C2.2 °C59 %1017.3 hPa16.1 kmNE (40°)13 km/hClear
11:53 AM10.6 °C2.2 °C56 %1017.6 hPa16.1 kmNNE (30°)7.4 km/hClear
12:53 PM10.6 °C2.2 °C56 %1017.3 hPa16.1 kmCalmClear
1:53 PM10.6 °C1.7 °C54 %1016.6 hPa16.1 kmNorth (360°)5.6 km/hClear
2:53 PM11.1 °C2.2 °C54 %1016.6 hPa16.1 kmCalmClear
3:53 PM11.7 °C2.2 °C52 %1015.9 hPa16.1 kmCalmClear
4:53 PM10 °C3.3 °C63 %1017.3 hPa16.1 kmESE (110°)9.3 km/hClear
5:53 PM9.4 °C3.3 °C66 %1017.3 hPa16.1 kmSE (130°)7.4 km/hClear
6:53 PM7.8 °C3.9 °C76 %1017.9 hPa16.1 kmCalmClear
7:53 PM7.2 °C3.9 °C80 %1017.6 hPa16.1 kmCalmClear
8:53 PM6.7 °C3.9 °C82 %1019 hPa16.1 kmCalmClear
9:53 PM5.6 °C3.9 °C89 %1018.6 hPa16.1 kmCalmClear
10:53 PM5.6 °C3.9 °C89 %1017.9 hPa16.1 kmNW (320°)5.6 km/hClear
11:53 PM5 °C3.3 °C89 %1018.3 hPa16.1 kmCalmClear
Hourly data recorded from KILM, located 0 kilometers away from Wilmington, North Carolina







STORIES FROM OUR PARTNERS